パンスターズ彗星

P/2017 B4 ( PanSTARRS )

English version
Home page
Updated on May 24, 2020

---------------------------------------------------------------------

・ プロフィール

発見日 2017年1月28日
発見光度 21.2等
発見者 Pan-STARRS 1 telescope (Haleakala)

・ 写真集

・ 軌道要素

Epoch 2017 Feb. 16.0 TT = JDT 2457800.5                                         
T 2017 Jan. 27.07913 TT                                 Rudenko                 
q   2.8169992            (2000.0)            P               Q                  
n   0.10729909     Peri.   16.18163     -0.72538465     -0.62238751             
a   4.3860344      Node   121.54702     +0.58710538     -0.78240185             
e   0.3577344      Incl.   20.18269     +0.35933882     +0.02193469             
P   9.19                                                                        
From 85 observations 2016 Dec. 22-2017 Mar. 28, mean residual 0".5.             

・ 光度変化

        m1 = 14.5 + 5 logΔ + 10.0 log r

---------------------------------------------------------------------

軌道要素はM.P.E.C. 2020-K117に掲載されたものです。
光度グラフはComet for Windowsで作成したものです。

---------------------------------------------------------------------

Copyright(C) Seiichi Yoshida (comet@aerith.net). All rights reserved.